This is the latest recevied weather packets stored in our database for station/object EA8BQU-10. If no packets are shown the sender has not sent any weather packets the latest 10 day(s).
| Time | Temp. | Humidity | Pressure | Rain* | Wind** | Luminosity | Snow |
|---|---|---|---|---|---|---|---|
| 1777446934 | 18.33° C | 100% | 1014.4 hPa | - | - | - | - |
| 1777446033 | 18.33° C | 100% | 1014.2 hPa | - | - | - | - |
| 1777444233 | 18.33° C | 100% | 1013.9 hPa | - | - | - | - |
| 1777443333 | 18.33° C | 100% | 1013.9 hPa | - | - | - | - |
| 1777442433 | 18.33° C | 100% | 1013.7 hPa | - | - | - | - |
| 1777441532 | 18.33° C | 100% | 1013.5 hPa | - | - | - | - |
| 1777440634 | 18.33° C | 100% | 1013.4 hPa | - | - | - | - |
| 1777439734 | 18.33° C | 100% | 1013.4 hPa | - | - | - | - |
| 1777438834 | 18.33° C | 100% | 1013.4 hPa | - | - | - | - |
| 1777437934 | 18.33° C | 100% | 1013.4 hPa | - | - | - | - |
| 1777428933 | 18.89° C | 100% | 1014.3 hPa | - | - | - | - |
| 1777416335 | 18.89° C | 100% | 1016.3 hPa | - | - | - | - |
| 1777413634 | 18.89° C | 100% | 1016.1 hPa | - | - | - | - |
| 1777412734 | 18.89° C | 100% | 1016.1 hPa | - | - | - | - |
| 1777410033 | 18.89° C | 100% | 1015.8 hPa | - | - | - | - |
| 1777408233 | 18.89° C | 100% | 1015.4 hPa | - | - | - | - |
| 1777407333 | 18.89° C | 100% | 1015.4 hPa | - | - | - | - |
| 1777406433 | 18.89° C | 100% | 1015.2 hPa | - | - | - | - |
| 1777404633 | 18.89° C | 100% | 1014.9 hPa | - | - | - | - |
| 1777403732 | 18.89° C | 100% | 1014.8 hPa | - | - | - | - |
| 1777401032 | 19.44° C | 98% | 1014.7 hPa | - | - | - | - |
| 1777400132 | 19.44° C | 100% | 1014.8 hPa | - | - | - | - |
| 1777397433 | 20° C | 96% | 1014.8 hPa | - | - | - | - |
| 1777396533 | 19.44° C | 99% | 1014.9 hPa | - | - | - | - |
| 1777395632 | 19.44° C | 98% | 1014.9 hPa | - | - | - | - |
* Rain since midnight (hover to see other rain measurements)
** Current wind speed in m/s (hover to see current wind gust speed)